QPF
0.00 0.00 0.00 0.00 0.00 0.00 0.00 0.00 0.00 0.00 0.00 0.00 0.00 0.00 0.00 0.00 0.00 0.00 0.00 0.00 0.00 0.00 0.00 0.00 0.00 0.00 0.00 0.00 0.00 0.00 0.00 0.00 0.00 0.00 0.00 0.00 0.00 0.00 0.00 0.00 0.00 0.00 0.00
0.00 0.00 0.00 0.00 0.00 0.00 0.00 0.00 0.00 0.00 0.00 0.00 0.00 0.00 0.00 0.00 0.00 0.00 0.00 0.00 0.00 0.00 0.00 0.00 0.00 0.00 0.00 0.00 0.00 0.00 0.00 0.00 0.00 0.00 0.00 0.00 0.00 0.00 0.00 0.00 0.00 0.00 0.00
0.00 0.00 0.00 0.00 0.00 0.00 0.00 0.00 0.00 0.00 0.00 0.00 0.00 0.00 0.00 0.00 0.00 0.00 0.00 0.00 0.00 0.00 0.00 0.00 0.00 0.00 0.00 0.00 0.00 0.00 0.00 0.00 0.00 0.00 0.00 0.00 0.00 0.00 0.00 0.00 0.00 0.00 0.00
0.00 0.00 0.00 0.00 0.00 0.00 0.00 0.00 0.00 0.00 0.00 0.00 0.00 0.00 0.00 0.00 0.00 0.00 0.00 0.00 0.00 0.00 0.00 0.00 0.00 0.00 0.00 0.00 0.00 0.00 0.00 0.00 0.00 0.00 0.00 0.00 0.00 0.00 0.00 0.00 0.00 0.00 0.00
0.00 0.00 0.00 0.00 0.00 0.00 0.00 0.00 0.00 0.00 0.00 0.00 0.00 0.00 0.00 0.00 0.00 0.00 0.00 0.00 0.00 0.00 0.00 0.00 0.00 0.00 0.00 0.00 0.00 0.00 0.00 0.00 0.00 0.00 0.00 0.00 0.00 0.00 0.00 0.00 0.00 0.00 0.00
0.00 0.00 0.00 0.00 0.00 0.00 0.00 0.00 0.00 0.00 0.00 0.00 0.00 0.00 0.00 0.00 0.00 0.00 0.00 0.00 0.00 0.00 0.00 0.00 0.00 0.00 0.00 0.00 0.00 0.00 0.00 0.00 0.00 0.00 0.00 0.00 0.00 0.00 0.00 0.00 0.00 0.00 0.00
0.00 0.00 0.00 0.00 0.00 0.00 0.00 0.00 0.00 0.00 0.00 0.00 0.00 0.00 0.00 0.00 0.00 0.00 0.00 0.00 0.00 0.00 0.00 0.00 0.00 0.00 0.00 0.00 0.00 0.00 0.00 0.00 0.00 0.00 0.00 0.00 0.00 0.00 0.00 0.00 0.00 0.00 0.00
0.00 0.00 0.00 0.00 0.00 0.00 0.00 0.00 0.00 0.00 0.00 0.00 0.00 0.00 0.00 0.00 0.00 0.00 0.00 0.00 0.00 0.00 0.00 0.00 0.00 0.00 0.00 0.00 0.00 0.00 0.00 0.00 0.00 0.00 0.00 0.00 0.00 0.00 0.00 0.00 0.00 0.00 0.00
0.00 0.00 0.00 0.00 0.00 0.00 0.00 0.00 0.00 0.00 0.00 0.00 0.00 0.00 0.00 0.00 0.00 0.00 0.00 0.00 0.00 0.00 0.00 0.00 0.00 0.00 0.00 0.00 0.00 0.00 0.00 0.00 0.00 0.00 0.00 0.00 0.00 0.00 0.00 0.00 0.00 0.00 0.00
0.00 0.00 0.00 0.00 0.00 0.00 0.00 0.00 0.00 0.00 0.00 0.00 0.00 0.00 0.00 0.00 0.00 0.00 0.00 0.00 0.00 0.00 0.00 0.00 0.00 0.00 0.00 0.00 0.00 0.00 0.00 0.00 0.00 0.00 0.00 0.00 0.00 0.00 0.00 0.00 0.00 0.00 0.00
0.00 0.00 0.00 0.00 0.00 0.00 0.00 0.00 0.00 0.00 0.00 0.00 0.00 0.00 0.00 0.00 0.00 0.00 0.00 0.00 0.00 0.00 0.00 0.00 0.00 0.00 0.00 0.00 0.00 0.00 0.00 0.00 0.00 0.00 0.00 0.00 0.00 0.00 0.00 0.00 0.00 0.00 0.00
0.00 0.00 0.00 0.00 0.00 0.00 0.00 0.00 0.00 0.00 0.00 0.00 0.00 0.00 0.00 0.00 0.00 0.00 0.00 0.00 0.00 0.00 0.00 0.00 0.00 0.00 0.00 0.00 0.00 0.00 0.00 0.00 0.00 0.00 0.00 0.00 0.00 0.00 0.00 0.00 0.00 0.00 0.00
0.00 0.00 0.00 0.00 0.00 0.00 0.00 0.00 0.00 0.00 0.00 0.00 0.00 0.00 0.00 0.00 0.00 0.00 0.00 0.00 0.00 0.00 0.00 0.00 0.00 0.00 0.00 0.00 0.00 0.00 0.00 0.00 0.00 0.00 0.00 0.00 0.00 0.00 0.00 0.00 0.00 0.00 0.00
0.00 0.00 0.00 0.00 0.00 0.00 0.00 0.00 0.00 0.00 0.00 0.00 0.00 0.00 0.00 0.00 0.00 0.00 0.00 0.00 0.00 0.00 0.00 0.00 0.00 0.00 0.00 0.00 0.00 0.00 0.00 0.00 0.00 0.00 0.00 0.00 0.00 0.00 0.00 0.00 0.00 0.00 0.00
0.00 0.00 0.00 0.00 0.00 0.00 0.00 0.00 0.00 0.00 0.00 0.00 0.00 0.00 0.00 0.00 0.00 0.00 0.00 0.00 0.00 0.00 0.00 0.00 0.00 0.00 0.00 0.00 0.00 0.00 0.00 0.00 0.00 0.00 0.00 0.00 0.00 0.00 0.00 0.00 0.00 0.00 0.00
0.00 0.00 0.00 0.00 0.00 0.00 0.00 0.00 0.00 0.00 0.00 0.00 0.01 0.00 0.00 0.00 0.00 0.00 0.00 0.00 0.00 0.00 0.00 0.00 0.00 0.00 0.00 0.00 0.00 0.00 0.00 0.00 0.00 0.00 0.00 0.00 0.00 0.00 0.00 0.00 0.00 0.00 0.00
0.00 0.00 0.00 0.00 0.00 0.00 0.00 0.00 0.00 0.00 0.00 0.00 0.00 0.01 0.01 0.00 0.00 0.00 0.00 0.00 0.00 0.00 0.00 0.00 0.00 0.00 0.00 0.00 0.00 0.00 0.00 0.00 0.00 0.00 0.00 0.00 0.00 0.00 0.00 0.00 0.00 0.00 0.00
0.00 0.00 0.00 0.00 0.00 0.00 0.00 0.00 0.00 0.00 0.00 0.00 0.00 0.00 0.01 0.02 0.01 0.00 0.00 0.00 0.00 0.00 0.00 0.00 0.00 0.00 0.00 0.00 0.00 0.00 0.00 0.00 0.00 0.00 0.00 0.00 0.00 0.00 0.00 0.00 0.00 0.00 0.00
0.00 0.00 0.00 0.00 0.00 0.00 0.00 0.00 0.00 0.00 0.00 0.00 0.00 0.00 0.00 0.01 0.02 0.02 0.01 0.00 0.00 0.00 0.00 0.00 0.00 0.00 0.00 0.00 0.00 0.00 0.00 0.00 0.00 0.00 0.00 0.00 0.00 0.00 0.00 0.00 0.00 0.00 0.00
0.00 0.00 0.00 0.00 0.00 0.00 0.00 0.00 0.00 0.00 0.00 0.00 0.00 0.00 0.00 0.00 0.01 0.01 0.01 0.00 0.00 0.00 0.00 0.00 0.00 0.00 0.00 0.00 0.00 0.00 0.00 0.00 0.00 0.00 0.00 0.00 0.00 0.00 0.00 0.00 0.00 0.00 0.00
0.00 0.00 0.00 0.00 0.00 0.00 0.00 0.00 0.00 0.00 0.00 0.00 0.00 0.00 0.00 0.00 0.00 0.00 0.00 0.00 0.00 0.00 0.00 0.00 0.00 0.00 0.00 0.00 0.00 0.00 0.00 0.00 0.00 0.00 0.00 0.00 0.00 0.00 0.00 0.00 0.00 0.00 0.00
0.00 0.00 0.00 0.00 0.00 0.00 0.00 0.00 0.00 0.00 0.00 0.00 0.00 0.00 0.01 0.01 0.00 0.00 0.00 0.00 0.00 0.00 0.00 0.00 0.00 0.00 0.00 0.00 0.00 0.00 0.00 0.00 0.00 0.00 0.00 0.00 0.00 0.00 0.00 0.00 0.00 0.00 0.00
0.00 0.00 0.00 0.00 0.00 0.00 0.00 0.00 0.00 0.00 0.00 0.00 0.00 0.00 0.00 0.00 0.00 0.00 0.00 0.00 0.00 0.00 0.00 0.00 0.00 0.00 0.00 0.00 0.00 0.00 0.00 0.00 0.00 0.00 0.00 0.00 0.00 0.00 0.00 0.00 0.00 0.00 0.00
0.00 0.00 0.00 0.00 0.00 0.00 0.00 0.00 0.00 0.00 0.00 0.00 0.00 0.00 0.00 0.00 0.00 0.00 0.00 0.00 0.00 0.00 0.00 0.00 0.00 0.00 0.00 0.00 0.00 0.00 0.00 0.00 0.00 0.00 0.00 0.00 0.00 0.00 0.00 0.00 0.00 0.00 0.00
0.00 0.00 0.00 0.00 0.00 0.00 0.00 0.00 0.00 0.00 0.00 0.00 0.00 0.00 0.00 0.00 0.00 0.00 0.00 0.00 0.00 0.00 0.00 0.00 0.00 0.00 0.00 0.00 0.00 0.00 0.00 0.00 0.00 0.00 0.00 0.00 0.00 0.00 0.00 0.00 0.00 0.00 0.00
0.00 0.00 0.00 0.00 0.00 0.00 0.00 0.00 0.00 0.00 0.00 0.00 0.00 0.00 0.00 0.00 0.00 0.00 0.00 0.00 0.00 0.00 0.00 0.00 0.00 0.00 0.00 0.00 0.00 0.00 0.00 0.00 0.00 0.00 0.00 0.00 0.00 0.00 0.00 0.00 0.00 0.00 0.00
MSLP
1027.70 1027.64 1027.54 1027.40 1027.23 1026.94 1026.96 1026.97 1027.01 1027.06 1027.03 1027.04 1026.94 1026.79 1026.81 1026.78 1026.69 1026.67 1026.83 1026.63 1026.59 1026.58 1026.33 1026.25 1026.32 1026.26 1026.15 1026.13 1026.10 1025.94 1026.31 1026.91 1026.95 1026.25 1025.89 1025.69 1025.61 1025.48 1025.39 1025.16 1024.83 1024.34 1024.12
1027.81 1027.83 1027.79 1027.64 1027.50 1027.32 1027.25 1027.05 1026.94 1027.14 1027.12 1027.07 1026.97 1026.87 1026.84 1026.79 1026.97 1027.01 1026.82 1026.75 1026.63 1026.78 1026.67 1026.40 1026.51 1026.62 1026.71 1026.48 1026.34 1026.43 1026.64 1026.71 1026.87 1026.68 1026.29 1026.01 1025.72 1025.72 1025.44 1025.26 1024.60 1024.25 1024.19
1027.84 1027.96 1027.96 1027.93 1027.87 1027.68 1027.46 1027.31 1027.15 1027.06 1027.05 1027.12 1027.14 1027.09 1026.95 1026.94 1027.00 1027.02 1026.86 1026.92 1026.67 1026.90 1026.94 1026.70 1027.15 1026.66 1026.83 1026.62 1026.50 1026.70 1026.65 1026.62 1026.66 1026.83 1026.82 1026.45 1025.89 1025.67 1025.26 1024.93 1024.62 1024.23 1024.16
1027.83 1028.06 1028.11 1027.94 1027.80 1027.66 1027.55 1027.49 1027.43 1027.27 1027.23 1027.06 1027.13 1027.17 1027.06 1027.09 1027.00 1026.91 1026.98 1026.96 1026.94 1027.02 1027.04 1026.78 1026.94 1026.73 1026.63 1026.45 1026.47 1026.77 1026.51 1026.70 1026.86 1026.80 1026.64 1026.47 1026.06 1025.69 1025.47 1025.10 1024.51 1024.46 1023.90
1027.94 1027.84 1027.74 1027.61 1027.63 1027.64 1027.63 1027.57 1027.37 1027.18 1027.19 1027.30 1027.19 1027.05 1026.99 1026.92 1026.81 1026.81 1026.90 1026.93 1026.91 1027.04 1026.97 1026.80 1026.76 1026.59 1026.34 1026.17 1026.18 1026.23 1026.49 1026.37 1026.76 1026.67 1026.56 1026.24 1026.01 1025.56 1025.55 1025.45 1025.00 1024.25 1023.70
1027.93 1027.85 1027.49 1027.42 1027.44 1027.46 1027.50 1027.57 1027.58 1027.51 1027.45 1027.46 1027.29 1027.17 1027.05 1026.86 1026.50 1026.19 1026.46 1026.76 1026.85 1026.95 1027.03 1026.89 1026.82 1026.56 1026.62 1026.10 1025.74 1025.90 1025.99 1026.31 1026.23 1026.55 1026.37 1026.16 1026.08 1025.65 1025.51 1025.30 1025.21 1024.72 1024.09
1028.61 1028.08 1027.93 1027.79 1027.67 1027.48 1027.39 1027.39 1027.38 1027.44 1027.47 1027.44 1027.35 1027.27 1027.13 1026.94 1026.50 1026.20 1026.00 1026.47 1026.75 1026.84 1026.96 1026.96 1026.72 1026.42 1026.62 1026.43 1026.29 1026.22 1026.20 1025.83 1025.69 1026.01 1026.26 1026.16 1025.91 1025.70 1025.59 1025.32 1025.22 1024.68 1024.46
1028.98 1028.59 1028.12 1028.04 1027.97 1027.65 1027.59 1027.53 1027.42 1027.39 1027.33 1027.31 1027.21 1027.16 1027.05 1026.66 1026.24 1026.01 1025.82 1026.03 1026.44 1026.64 1026.82 1026.85 1026.80 1026.71 1026.67 1026.37 1026.24 1026.26 1026.15 1025.99 1026.14 1026.05 1026.06 1025.87 1025.82 1025.51 1025.41 1025.14 1025.02 1024.43 1024.27
1028.92 1028.82 1028.26 1028.08 1028.09 1027.87 1027.90 1027.62 1027.50 1027.42 1027.29 1027.10 1026.94 1026.86 1026.80 1026.49 1026.01 1025.64 1025.47 1025.70 1025.97 1026.18 1026.31 1026.38 1026.43 1026.27 1026.13 1025.82 1025.70 1025.83 1025.86 1025.92 1025.89 1025.73 1025.47 1025.48 1025.20 1025.01 1025.22 1024.97 1024.99 1024.76 1023.96
1028.52 1028.34 1028.11 1027.96 1027.91 1028.02 1027.66 1027.47 1027.21 1027.10 1026.94 1026.86 1026.70 1026.54 1026.39 1026.12 1025.80 1025.24 1025.12 1025.27 1025.59 1025.80 1025.98 1026.05 1025.85 1025.80 1025.64 1025.51 1025.48 1025.70 1025.74 1025.74 1025.79 1025.73 1025.63 1025.33 1025.50 1025.51 1025.10 1025.20 1025.18 1024.94 1024.75
1028.22 1028.03 1027.79 1027.61 1027.55 1027.38 1027.22 1027.12 1027.01 1026.86 1026.77 1026.66 1026.56 1026.18 1025.99 1025.77 1025.54 1024.82 1024.47 1024.53 1024.94 1025.44 1025.57 1025.64 1025.62 1025.45 1025.42 1025.38 1025.30 1025.47 1025.59 1025.49 1025.77 1025.76 1025.62 1025.59 1025.46 1025.29 1025.17 1025.28 1025.28 1025.23 1024.85
1028.09 1027.78 1027.51 1027.29 1027.11 1026.86 1026.79 1026.68 1026.58 1026.61 1026.82 1026.53 1026.28 1025.74 1025.37 1025.23 1024.62 1024.26 1023.91 1023.66 1024.33 1024.58 1025.07 1025.04 1025.25 1025.14 1025.22 1025.22 1025.38 1025.42 1025.19 1025.47 1025.77 1025.75 1025.57 1025.40 1025.30 1025.26 1025.27 1025.25 1025.09 1024.81 1024.45
1028.03 1027.68 1027.32 1026.94 1026.59 1026.29 1026.16 1026.16 1026.27 1026.11 1026.04 1025.72 1025.53 1025.12 1024.65 1024.25 1023.99 1023.46 1023.01 1022.91 1022.90 1023.54 1024.11 1024.72 1024.81 1024.88 1025.10 1025.65 1025.66 1025.64 1025.94 1026.14 1026.06 1025.96 1025.82 1025.69 1025.62 1025.57 1025.25 1024.81 1024.47 1024.27 1023.98
1027.85 1027.43 1026.98 1026.60 1026.09 1025.71 1025.46 1025.18 1025.28 1025.21 1024.95 1024.70 1024.49 1024.15 1023.83 1023.58 1023.25 1022.89 1022.57 1022.21 1022.16 1022.66 1023.40 1023.89 1024.31 1025.13 1025.65 1026.06 1026.49 1027.16 1027.25 1026.86 1026.59 1026.54 1026.49 1026.29 1025.83 1025.56 1025.37 1024.93 1024.62 1024.22 1023.58
1027.58 1027.11 1026.65 1026.11 1025.77 1025.35 1024.94 1024.53 1024.24 1023.81 1023.64 1023.28 1023.05 1022.91 1022.80 1022.63 1022.20 1022.01 1022.05 1022.06 1022.06 1022.47 1023.18 1023.88 1024.73 1025.40 1026.00 1026.55 1027.05 1027.44 1027.71 1027.67 1027.34 1027.31 1027.12 1026.79 1026.35 1026.05 1025.67 1025.33 1024.74 1024.19 1023.70
1027.22 1026.66 1026.21 1025.72 1025.22 1024.80 1024.33 1023.59 1023.04 1022.60 1022.07 1021.53 1021.14 1021.00 1021.09 1021.02 1021.05 1020.98 1020.92 1021.06 1021.61 1022.19 1023.43 1024.01 1024.76 1025.37 1026.00 1026.63 1027.30 1027.82 1027.88 1027.81 1027.77 1027.74 1027.70 1027.58 1027.24 1026.79 1026.05 1025.50 1025.15 1024.52 1023.78
1026.82 1026.30 1025.82 1025.29 1024.89 1024.44 1023.90 1023.37 1022.62 1021.83 1021.47 1020.94 1020.39 1019.91 1019.59 1019.70 1019.79 1019.84 1019.93 1020.23 1020.64 1021.53 1022.71 1023.72 1024.43 1025.21 1025.87 1026.49 1026.99 1027.53 1027.83 1027.73 1027.84 1027.93 1027.99 1027.86 1027.64 1027.28 1026.72 1026.15 1025.69 1025.16 1024.19
1026.48 1025.77 1025.19 1024.87 1024.45 1023.95 1023.43 1022.86 1022.33 1021.74 1021.05 1020.34 1019.91 1019.46 1018.81 1018.32 1018.42 1018.87 1019.06 1019.50 1019.97 1020.36 1021.81 1023.03 1023.92 1024.76 1025.61 1026.11 1026.58 1027.06 1027.29 1027.46 1027.71 1027.82 1027.83 1027.73 1027.76 1027.77 1027.20 1026.61 1026.08 1025.65 1024.74
1025.95 1025.39 1024.82 1024.31 1023.84 1023.23 1022.56 1022.14 1021.64 1021.07 1020.50 1019.93 1019.35 1018.74 1018.30 1017.86 1017.57 1017.59 1018.07 1018.61 1019.35 1020.39 1021.36 1022.39 1023.19 1024.09 1024.82 1025.43 1025.91 1026.39 1026.72 1026.97 1027.16 1027.42 1027.44 1027.54 1027.62 1027.68 1027.31 1026.73 1026.22 1025.64 1024.79
1025.23 1024.53 1023.70 1023.46 1023.13 1022.62 1022.10 1021.52 1020.89 1020.32 1019.74 1019.24 1018.86 1018.36 1017.97 1017.89 1017.52 1017.28 1017.13 1018.23 1019.15 1020.11 1021.02 1021.95 1022.81 1023.44 1024.12 1024.77 1025.34 1025.82 1026.30 1026.54 1026.69 1026.83 1026.99 1027.08 1027.13 1027.20 1027.18 1026.74 1026.23 1025.90 1025.17
1024.75 1024.28 1023.59 1023.49 1022.95 1022.25 1021.60 1020.86 1020.19 1019.64 1019.07 1018.65 1018.18 1017.74 1017.51 1017.48 1017.39 1017.53 1017.31 1018.10 1018.80 1019.54 1020.51 1021.44 1022.22 1022.90 1023.56 1024.21 1024.82 1025.28 1025.60 1025.84 1026.07 1026.21 1026.29 1026.38 1026.57 1026.64 1026.35 1026.15 1025.97 1025.64 1025.44
1023.98 1023.89 1023.73 1023.35 1022.66 1021.97 1021.18 1020.36 1019.62 1019.05 1018.62 1018.22 1017.71 1017.39 1017.01 1016.74 1016.87 1017.25 1017.65 1017.72 1018.65 1019.26 1020.00 1020.81 1021.73 1022.37 1022.95 1023.59 1024.25 1024.67 1025.02 1025.25 1025.37 1025.51 1025.62 1025.75 1025.84 1025.92 1025.89 1025.79 1025.49 1025.32 1025.02
1023.54 1023.71 1023.56 1023.09 1022.45 1021.74 1020.95 1020.10 1019.42 1018.81 1018.35 1017.97 1017.63 1017.37 1017.10 1017.04 1017.13 1017.19 1017.55 1017.86 1018.46 1019.17 1019.94 1020.62 1021.43 1022.20 1022.62 1023.10 1023.62 1024.01 1024.35 1024.42 1024.51 1024.77 1024.99 1025.06 1025.08 1025.15 1025.21 1025.27 1025.15 1024.92 1024.56
1023.38 1023.43 1023.38 1022.95 1022.44 1021.73 1021.01 1020.09 1019.47 1018.84 1018.30 1018.00 1017.75 1017.47 1017.23 1017.13 1017.22 1017.44 1017.62 1018.12 1018.47 1019.25 1019.97 1020.59 1021.14 1021.80 1022.34 1022.79 1023.13 1023.42 1023.65 1023.81 1023.97 1024.13 1024.25 1024.32 1024.28 1024.28 1024.54 1024.67 1024.52 1024.35 1024.27
1023.09 1023.29 1023.27 1022.93 1022.47 1021.88 1021.18 1020.44 1019.77 1019.18 1018.68 1018.25 1017.94 1017.72 1017.53 1017.48 1017.51 1017.68 1017.95 1018.23 1018.84 1019.48 1020.16 1020.65 1021.08 1021.56 1022.02 1022.41 1022.76 1023.07 1023.18 1023.13 1023.18 1023.32 1023.40 1023.47 1023.52 1023.59 1023.93 1024.24 1024.15 1023.96 1023.92
1023.00 1023.15 1023.02 1022.72 1022.39 1021.89 1021.33 1020.72 1020.06 1019.45 1018.98 1018.56 1018.17 1017.91 1017.81 1017.77 1017.80 1017.96 1018.32 1018.66 1019.10 1019.61 1020.15 1020.66 1021.10 1021.47 1021.78 1022.11 1022.35 1022.55 1022.50 1022.47 1022.47 1022.20 1021.95 1022.37 1022.82 1023.06 1023.31 1023.72 1023.63 1023.59 1023.54
Thickness
5358 5363 5368 5373 5379 5384 5388 5392 5396 5400 5406 5411 5416 5423 5428 5433 5438 5443 5445 5451 5455 5460 5465 5471 5474 5480 5486 5491 5494 5499 5499 5498 5500 5509 5515 5519 5522 5526 5529 5534 5538 5544 5548
5344 5349 5353 5358 5363 5369 5373 5379 5383 5386 5391 5397 5402 5407 5412 5418 5422 5427 5433 5438 5444 5446 5452 5457 5461 5466 5468 5474 5479 5482 5483 5487 5489 5492 5499 5504 5509 5512 5517 5521 5528 5532 5535
5330 5333 5338 5343 5347 5352 5358 5364 5369 5373 5378 5382 5386 5391 5397 5402 5407 5412 5417 5422 5429 5432 5436 5443 5443 5451 5453 5459 5465 5467 5470 5476 5478 5478 5481 5487 5495 5498 5506 5511 5515 5520 5521
5317 5320 5323 5328 5334 5339 5345 5349 5354 5358 5363 5367 5370 5374 5379 5385 5390 5395 5400 5405 5410 5415 5420 5426 5429 5436 5440 5445 5449 5451 5457 5458 5461 5465 5469 5472 5478 5482 5489 5494 5502 5504 5510
5302 5307 5312 5316 5320 5324 5329 5334 5340 5345 5349 5352 5355 5360 5364 5369 5374 5379 5383 5388 5393 5398 5404 5410 5414 5419 5425 5430 5432 5436 5439 5445 5445 5450 5454 5458 5463 5469 5471 5475 5483 5489 5495
5288 5294 5299 5303 5307 5310 5315 5318 5321 5326 5331 5336 5340 5344 5349 5354 5359 5365 5369 5371 5376 5380 5384 5390 5395 5401 5405 5412 5419 5421 5426 5425 5430 5432 5438 5442 5444 5451 5454 5459 5462 5468 5476
5266 5274 5281 5285 5290 5295 5300 5303 5307 5311 5315 5318 5323 5327 5331 5336 5342 5348 5353 5355 5357 5362 5366 5371 5377 5382 5386 5391 5396 5400 5405 5410 5414 5417 5420 5423 5428 5429 5434 5438 5443 5451 5454
5249 5254 5259 5264 5271 5278 5282 5286 5291 5295 5300 5303 5307 5311 5315 5320 5326 5331 5336 5341 5342 5345 5348 5352 5356 5362 5366 5372 5377 5382 5387 5391 5393 5397 5401 5405 5408 5412 5415 5420 5424 5431 5435
5233 5237 5242 5245 5250 5257 5263 5269 5274 5278 5283 5289 5293 5296 5300 5304 5310 5316 5321 5325 5327 5331 5334 5338 5342 5347 5350 5357 5363 5366 5369 5369 5373 5378 5383 5386 5391 5396 5397 5403 5404 5410 5418
5222 5224 5227 5231 5233 5236 5243 5250 5257 5262 5268 5274 5277 5282 5287 5290 5295 5301 5306 5309 5311 5315 5318 5320 5325 5330 5334 5340 5345 5348 5348 5350 5357 5359 5365 5370 5373 5375 5379 5383 5386 5390 5392
5210 5213 5216 5220 5222 5226 5229 5233 5238 5243 5249 5253 5259 5265 5270 5275 5279 5287 5292 5294 5294 5296 5301 5304 5308 5313 5318 5322 5327 5329 5331 5336 5336 5342 5346 5350 5354 5358 5360 5363 5366 5368 5371
5197 5201 5205 5209 5213 5218 5219 5221 5224 5226 5229 5236 5240 5248 5254 5259 5265 5271 5277 5284 5283 5283 5283 5288 5292 5295 5300 5303 5306 5310 5315 5317 5319 5323 5329 5334 5337 5339 5342 5345 5348 5352 5356
5183 5187 5192 5197 5202 5207 5209 5212 5215 5215 5219 5225 5229 5234 5240 5245 5249 5257 5263 5268 5272 5271 5272 5275 5276 5280 5281 5282 5286 5289 5292 5296 5301 5306 5310 5313 5316 5319 5324 5330 5334 5338 5341
5169 5174 5180 5184 5190 5195 5201 5205 5205 5208 5211 5218 5221 5226 5228 5232 5237 5242 5247 5253 5258 5261 5261 5259 5261 5261 5260 5262 5264 5265 5269 5274 5281 5284 5288 5291 5296 5302 5306 5312 5316 5322 5328
5157 5162 5167 5173 5177 5183 5188 5193 5196 5202 5206 5211 5215 5218 5220 5223 5229 5232 5234 5238 5241 5244 5244 5243 5240 5239 5239 5240 5241 5244 5248 5253 5256 5258 5266 5271 5277 5282 5288 5293 5300 5306 5311
5144 5150 5155 5161 5164 5170 5176 5182 5188 5195 5202 5209 5214 5217 5217 5221 5222 5225 5228 5231 5231 5232 5227 5226 5222 5221 5225 5224 5225 5226 5227 5234 5235 5240 5244 5248 5255 5261 5270 5277 5281 5288 5296
5131 5136 5141 5147 5150 5154 5160 5167 5174 5181 5189 5195 5201 5207 5213 5213 5215 5218 5220 5221 5222 5219 5215 5210 5209 5208 5208 5210 5210 5210 5214 5216 5218 5220 5224 5229 5234 5241 5249 5257 5262 5269 5278
5117 5124 5130 5133 5137 5142 5147 5154 5160 5166 5173 5180 5187 5193 5201 5207 5209 5208 5209 5209 5211 5213 5206 5198 5195 5194 5194 5196 5197 5197 5198 5201 5203 5205 5209 5213 5216 5221 5228 5236 5242 5247 5259
5106 5110 5115 5120 5124 5131 5138 5143 5149 5155 5161 5166 5173 5182 5187 5194 5199 5202 5202 5201 5201 5194 5190 5185 5184 5182 5181 5181 5182 5183 5186 5188 5190 5191 5195 5198 5201 5204 5211 5218 5225 5239 5248
5095 5102 5110 5111 5114 5119 5124 5130 5137 5144 5150 5156 5160 5167 5172 5176 5182 5188 5194 5190 5187 5183 5178 5175 5173 5171 5169 5167 5167 5168 5169 5172 5175 5178 5181 5184 5188 5191 5197 5204 5211 5216 5225
5084 5087 5095 5095 5099 5105 5111 5119 5126 5133 5139 5144 5149 5155 5160 5163 5166 5170 5177 5176 5175 5172 5170 5168 5165 5162 5159 5157 5154 5153 5154 5156 5159 5163 5167 5171 5175 5180 5185 5191 5196 5202 5208
5077 5075 5077 5081 5087 5093 5100 5109 5117 5123 5126 5132 5138 5142 5149 5154 5157 5158 5161 5165 5161 5162 5162 5159 5155 5153 5151 5148 5146 5144 5143 5142 5145 5148 5151 5156 5162 5166 5171 5176 5184 5189 5194
5066 5064 5066 5070 5075 5084 5088 5096 5103 5110 5114 5119 5124 5130 5135 5139 5142 5146 5148 5150 5150 5150 5150 5148 5145 5142 5141 5139 5136 5134 5133 5133 5135 5136 5137 5140 5146 5152 5158 5162 5169 5176 5181
5052 5053 5055 5058 5063 5071 5076 5086 5091 5099 5105 5107 5112 5118 5122 5126 5129 5131 5134 5135 5138 5138 5138 5137 5135 5133 5130 5128 5125 5122 5121 5120 5120 5122 5125 5128 5133 5139 5143 5149 5157 5163 5169
5041 5042 5044 5046 5050 5056 5062 5070 5075 5081 5088 5095 5100 5104 5108 5112 5114 5117 5120 5123 5124 5125 5125 5125 5124 5123 5121 5118 5115 5112 5111 5112 5113 5115 5118 5121 5124 5128 5131 5135 5142 5150 5156
5029 5030 5033 5036 5040 5043 5049 5056 5062 5067 5073 5080 5085 5090 5095 5099 5102 5104 5107 5110 5112 5113 5114 5113 5113 5113 5111 5109 5108 5108 5108 5109 5110 5112 5116 5117 5118 5120 5122 5126 5132 5138 5144